COSMOS 886 DEB, 9650

Orbit data source: Space-Track

COSMOS 886 DEB, 9650 is space debris in LEO originally from a launch on Mon, 27 Dec 1976 UTC launched from the Tyuratam Missile And Space Complex (TTMTR). Debris objects in space refer to the collection of defunct objects orbiting the Earth. Examples of debris include non-operational satellites, rocket bodies, and fragments generated from explosions, collisions, or faulty payload assembly.

Loading next visibility...
Identifier
9650, 1976-126G
Orbit
LEO
Country
Flag of CISCIS
Related business
Manufacturer
Unknown
Mission
Spacecraft
Bus & Motor
Unknown
Mass
Unknown
Launch date (UTC)
1976-12-27 (49 years ago)
Launch vehicle
Unknown
Launch site
Tyuratam Missile And Space Complex (TTMTR)
Object type
Payload
Rocket body
Debris
Shape & HBR
Unknown shape, 0.2 m
Radar Cross Section
Small (<0.1 m²)

Expand to show TLE details & history
Last TLE update: 10 hours ago

TLE from 10 hours ago
0 COSMOS 886 DEB
1  9650U 76126G   26130.16191635  .00001037  00000-0  26766-3 0  9997
2  9650  65.8087 152.8184 0854310  46.0657 320.7730 13.32529507349896
Epoch: 2026-05-10T03:53Z
TLE epoch observation values (Epoch: 2026-05-10T03:53:09.572Z)
Latitude
0.00002°
Longitude
-133.44044°
Altitude
666.027 km
Speed
7.758 km/s
True Right ascension
10h 11m 16s
True Declination
0° 00' 00"
Sunlit
Object was in daylight at epoch
Visualization orbit readout
Latitude
Unknown
Longitude
Unknown
Altitude
Unknown
Speed
Unknown
Apparent Right ascension
Unknown
Apparent Declination
Unknown
Sunlit
N/A
Visualization observer readout
Local Sidereal Time
22:01:40
Azimuth
Unknown
Elevation
Unknown
Doppler factor
Unknown
Orbital elements
Apogee altitude
1,777.693 km
Perigee altitude
493.851 km
Semi-major axis
7,513.909 km
Eccentricity
0.08543
Inclination
65.8087°
RAAN
152.8184°
Arg. of periapsis
46.0657°
True anomaly
314.04165°
Mean anomaly
320.773°
Eccentric anomaly
317.46382°
Mean motion
3.3323 °/min
Orbital period
108.03 mins
BSTAR
0.00026766
Loading maneuver chart data...
Computing Atmospheric mass density...
Loading historical data...
Loading historical data...
Loading historical data...
Loading historical data...
Loading historical data...
Loading historical data...
Loading historical data...

Documentation

Showing up to 5 results
|